Home > Weather > Piraeus > Past weeks

Flag for Greece Past Weather in Piraeus, Greece — Yesterday and Last 2 Weeks

Now
91 °F

Scattered clouds.


Feels Like: 91 °F
Forecast: 73 / 84 °F
Wind: 14 mph from North

Location: Elefsis Airport

Current Time: Jun 25, 2016 at 5:08:57 PM

Latest Report: Jun 25, 2016 at 4:20 PM


Visibility: N/A

Pressure: 29.71 "Hg

Humidity: 34%

Dew Point: 59 °F

Location of PiraeusLocation

Past Weather in Piraeus — Graph

°F

Piraeus Temperature Yesterday

Maximum temperature yesterday: 95 °F (at 2:20 PM)
Minimum temperature yesterday: 82 °F (at 5:20 AM)
Average temperature yesterday: 88 °F

High & Low Weather Summary for the Past Weeks

 TemperatureHumidityPressure
High104 °F (Jun 19, 1:20 PM)88% (Jun 14, 1:50 AM)30.04 "Hg (Jun 14, 1:50 AM)
Low61 °F (Jun 11, 4:20 AM)14% (Jun 19, 2:20 PM)29.53 "Hg (Jun 14, 1:50 PM)
Average83 °F39%29.86 "Hg
* Reported Jun 10 3:20 PM — Jun 25 3:50 PM, Piraeus, Weather by CustomWeather, © 2016

Note: Actual official high and low records may vary slightly from our data, if they occured in-between our weather recording intervals... More about our weather records

Advertising

Piraeus Weather History for the Previous 24 Hours

Scroll right to see more
 ConditionsComfort  
Time TempWeatherWind HumidityBarometerVisibility
3:50 PM
Sat, Jun 25
91 °FScattered clouds.16 mph34%29.74 "HgN/A
3:20 PM91 °FScattered clouds.17 mph34%29.74 "HgN/A
2:50 PM91 °FPassing clouds.14 mph34%29.74 "HgN/A
2:20 PM91 °FPassing clouds.16 mph34%29.74 "HgN/A
1:50 PM91 °FPassing clouds.17 mph34%29.74 "HgN/A
1:20 PM91 °FPassing clouds.17 mph36%29.74 "HgN/A
12:50 PM90 °FPassing clouds.17 mph38%29.77 "HgN/A
12:20 PM90 °FPassing clouds.16 mph38%29.77 "HgN/A
11:50 AM86 °FPassing clouds.16 mph49%29.77 "HgN/A
11:20 AM88 °FScattered clouds.17 mph40%29.77 "HgN/A
10:50 AM86 °FScattered clouds.15 mph43%29.77 "HgN/A
10:20 AM86 °FScattered clouds.15 mph43%29.77 "HgN/A
9:50 AM84 °FScattered clouds.15 mph48%29.77 "HgN/A
9:20 AM84 °FScattered clouds.15 mph48%29.77 "HgN/A
8:50 AM81 °FScattered clouds.15 mph58%29.74 "HgN/A
8:20 AM81 °FScattered clouds.15 mph54%29.77 "HgN/A
7:50 AM81 °FScattered clouds.12 mph51%29.77 "HgN/A
7:20 AM79 °FScattered clouds.13 mph58%29.77 "HgN/A
6:50 AM79 °FPassing clouds.10 mph54%29.77 "HgN/A
6:20 AM79 °FPassing clouds.12 mph54%29.77 "HgN/A
5:50 AM79 °FPassing clouds.13 mph54%29.77 "HgN/A
5:20 AM79 °FClear.14 mph54%29.74 "Hg10 mi
4:50 AM81 °FClear.12 mph51%29.74 "Hg10 mi
4:20 AM81 °FClear.14 mph48%29.74 "Hg10 mi
3:50 AM81 °FClear.12 mph48%29.74 "Hg10 mi
2:50 AM82 °FClear.8 mph45%29.77 "Hg10 mi
2:20 AM82 °FClear.8 mph45%29.77 "Hg10 mi
1:50 AM82 °FClear.6 mph45%29.77 "Hg10 mi
1:20 AM84 °FClear.5 mph45%29.77 "Hg10 mi
12:50 AM84 °FClear.7 mph45%29.77 "Hg10 mi
12:20 AM84 °FClear.8 mph45%29.77 "Hg10 mi
11:50 PM
Fri, Jun 24
84 °FClear.10 mph45%29.77 "Hg10 mi
11:20 PM86 °FClear.10 mph43%29.77 "Hg10 mi
10:50 PM86 °FClear.10 mph46%29.77 "Hg10 mi
10:20 PM86 °FClear.8 mph46%29.77 "Hg10 mi
9:50 PM88 °FSunny.7 mph43%29.77 "Hg10 mi
9:20 PM88 °FSunny.8 mph43%29.77 "Hg10 mi
8:50 PM90 °FSunny.8 mph41%29.77 "Hg10 mi
8:20 PM90 °FSunny.7 mph41%29.77 "Hg10 mi
7:50 PM91 °FSunny.9 mph38%29.77 "Hg10 mi
7:20 PM91 °FSunny.12 mph36%29.77 "Hg10 mi
6:50 PM93 °FSunny.12 mph34%29.77 "Hg10 mi
6:20 PM93 °FSunny.12 mph32%29.77 "Hg10 mi
5:50 PM93 °FSunny.13 mph32%29.77 "Hg10 mi
5:20 PM93 °FSunny.16 mph32%29.77 "Hg10 mi
Weather by CustomWeather, © 2016

See weather overviewHow to use our weather pages